Date,TemperatureHighF,TemperatureAvgF,TemperatureLowF,DewpointHighF,DewpointAvgF,DewpointLowF,HumidityHigh,HumidityAvg,HumidityLow,PressureMaxIn,PressureMinIn,WindSpeedMaxMPH,WindSpeedAvgMPH,GustSpeedMaxMPH,PrecipitationSumIn
2013-1-1,38,16,-1,15,-2,-16,46,44,39,23.24,23.12,14,2,14,0.00
2013-1-2,38,21,10,15,2,-7,45,43,39,23.21,23.15,13,4,13,0.00
2013-1-3,28,21,12,7,2,-5,45,43,41,23.27,23.15,19,6,19,0.00
2013-1-4,42,18,2,18,0,-15,45,43,39,23.27,23.18,9,1,10,0.00
2013-1-5,52,20,0,26,0,-16,45,43,36,23.36,23.24,9,1,9,0.00
2013-1-6,49,24,8,24,4,-9,45,42,37,23.30,23.00,10,1,10,0.00
2013-1-7,39,23,9,16,4,-8,45,42,39,23.09,22.97,13,2,14,0.00
2013-1-8,50,28,7,25,7,-10,45,41,37,23.24,23.03,15,3,15,0.00
2013-1-9,49,34,21,24,12,2,43,40,37,23.33,23.15,13,2,13,0.00
2013-1-10,30,22,19,10,3,1,44,43,41,23.15,22.74,16,1,16,0.00
2013-1-11,34,17,0,12,-1,-16,45,43,40,22.94,22.77,17,4,17,0.00
2013-1-12,36,10,-7,14,-8,-23,45,43,40,22.94,22.86,12,1,15,0.00
2013-1-13,37,11,-7,14,-7,-22,45,44,40,22.97,22.86,15,1,15,0.00
2013-1-14,23,7,-4,3,-10,-20,45,45,43,23.09,22.92,13,2,13,0.00
2013-1-15,27,12,-8,6,-5,-24,45,44,42,23.27,23.06,18,3,18,0.00
2013-1-16,42,21,4,19,1,-12,45,43,39,23.30,23.21,10,2,11,0.00
2013-1-17,36,25,14,14,6,-4,45,42,40,23.33,23.24,11,2,12,0.00
2013-1-18,40,22,7,17,3,-10,45,43,39,23.30,23.21,9,1,9,0.00
2013-1-19,46,23,5,22,4,-11,45,42,38,23.30,23.18,11,2,11,0.00
2013-1-20,24,19,15,4,0,-3,44,43,42,17.72,17.72,0,0,0,0.00
2013-1-21,47,25,8,22,5,-9,45,42,37,17.72,17.72,13,2,13,0.00
2013-1-22,56,32,9,29,10,-8,45,41,35,17.72,17.72,10,1,10,0.00
2013-1-23,59,34,14,31,12,-4,45,40,35,17.72,17.72,9,1,9,0.00
2013-1-24,51,38,30,26,16,9,45,41,37,17.72,17.72,15,1,15,0.00
2013-1-25,54,41,36,28,21,17,52,44,36,17.72,17.72,7,0,8,0.00
2013-1-26,42,39,37,28,24,18,60,55,45,17.72,17.72,10,1,10,0.00
2013-1-27,43,37,32,30,24,18,62,59,49,17.72,17.72,18,3,18,0.00
2013-1-28,41,29,17,20,11,0,59,46,39,17.72,17.72,13,1,14,0.00
2013-1-29,34,22,10,12,2,-7,46,43,40,17.72,17.72,16,4,17,0.00
2013-1-30,49,27,8,23,7,-9,46,42,37,17.72,17.72,13,2,13,0.00
2013-1-31,51,30,14,25,10,-2,48,42,37,17.72,17.72,10,1,10,0.00
2013-2-1,63,32,14,34,12,-3,48,42,34,17.72,17.72,13,1,13,0.00
2013-2-2,56,34,20,29,12,2,46,41,35,17.72,17.72,10,1,10,0.00
2013-2-3,47,34,27,22,13,7,45,41,37,17.72,17.72,9,1,10,0.00
2013-2-4,56,34,20,29,13,4,55,42,35,17.72,17.72,11,1,11,0.00
2013-2-5,62,36,18,34,14,1,47,41,34,17.72,17.72,8,1,8,0.00
2013-2-6,54,34,23,28,13,4,46,41,36,17.72,17.72,13,2,13,0.00
2013-2-7,58,34,19,30,13,2,50,43,35,17.72,17.72,11,1,11,0.00
2013-2-8,47,34,27,22,12,7,43,41,37,17.72,17.72,21,4,25,0.00
2013-2-9,35,26,21,13,6,2,45,43,40,17.72,17.72,17,4,17,0.00
2013-2-10,30,22,5,9,4,-12,45,43,41,23.30,17.72,13,4,13,0.00
2013-2-11,38,12,-3,15,-6,-19,45,44,39,23.42,23.27,10,1,10,0.00
2013-2-12,40,15,-7,16,-3,-23,46,43,39,23.54,23.42,10,1,11,0.00
2013-2-13,45,25,3,21,5,-13,45,42,38,23.51,23.48,10,2,11,0.00
2013-2-14,44,27,8,20,7,-8,46,42,38,23.59,23.48,17,3,17,0.00
2013-2-15,50,34,23,25,13,4,42,40,37,23.71,23.59,14,3,14,0.00
2013-2-16,56,32,12,29,10,-5,45,41,35,23.71,23.51,9,1,9,0.00
2013-2-17,55,33,14,29,12,-3,45,41,36,23.51,23.27,17,3,17,0.00
2013-2-18,60,32,14,32,11,-3,45,41,35,23.45,23.36,11,1,11,0.00
2013-2-19,54,32,16,28,11,-1,45,41,36,23.39,23.03,15,2,15,0.00
2013-2-20,33,27,20,12,7,1,47,43,41,23.18,22.97,11,3,11,0.00
2013-2-21,38,26,14,15,7,-4,46,43,39,23.30,23.18,11,3,11,0.00
2013-2-22,46,23,6,22,4,-11,46,43,38,23.45,23.30,15,2,15,0.00
2013-2-23,51,28,9,26,7,-8,45,42,37,23.45,23.18,17,3,17,0.00
2013-2-24,32,24,16,10,5,-2,44,42,41,23.39,23.18,25,4,25,0.00
2013-2-25,54,30,9,28,9,-8,45,41,36,23.48,23.36,13,2,13,0.00
2013-2-26,45,29,17,21,8,-1,44,41,38,23.48,23.30,18,4,18,0.00
2013-2-27,40,28,19,17,7,0,43,41,39,23.59,23.45,14,4,14,0.00
2013-2-28,47,32,21,22,10,2,43,41,37,23.71,23.56,13,3,13,0.00
2013-3-1,57,35,15,30,13,-3,44,40,35,23.71,23.68,15,3,15,0.00
2013-3-2,66,47,20,36,22,1,45,38,33,23.74,23.56,10,2,10,0.00
2013-3-3,60,40,25,32,17,5,42,39,35,23.59,23.36,15,3,17,0.00
2013-3-4,59,42,26,32,18,6,42,39,35,23.54,23.33,17,3,17,0.00
2013-3-5,59,37,19,32,15,1,44,40,35,23.59,23.48,9,1,10,0.00
2013-3-6,63,40,22,34,17,4,44,39,34,23.48,23.36,13,2,13,0.00
2013-3-7,63,39,21,34,16,2,44,39,34,23.39,23.33,20,2,20,0.00
2013-3-8,38,32,23,17,12,4,50,43,39,23.33,23.12,11,1,11,0.00
2013-3-9,36,28,20,14,9,3,51,43,40,23.42,23.21,3,0,3,0.00
2013-3-10,45,33,21,21,12,2,54,41,38,23.59,23.42,14,3,15,0.00
2013-3-11,58,33,12,31,12,-5,46,41,35,23.59,23.48,9,1,10,0.00
2013-3-12,58,37,19,30,15,1,46,40,35,23.65,23.54,17,2,17,0.00
2013-3-13,63,42,21,34,18,4,47,39,34,23.68,23.62,9,2,10,0.00
2013-3-14,69,48,26,38,22,6,42,37,33,23.71,23.62,10,2,10,0.00
2013-3-15,77,49,27,44,24,7,42,37,31,23.65,23.48,17,2,17,0.00
2013-3-16,70,45,31,39,21,10,43,38,32,23.48,23.33,24,2,24,0.00
2013-3-17,65,44,27,35,21,9,48,39,33,23.42,23.30,23,4,23,0.00
2013-3-18,67,44,25,37,20,5,42,38,33,23.48,23.39,15,2,15,0.00
2013-3-19,64,44,30,35,20,9,41,38,34,23.56,23.42,11,1,11,0.00
2013-3-20,64,44,27,35,20,6,42,38,34,23.56,23.36,19,3,19,0.00
2013-3-21,68,48,30,37,23,9,41,37,33,23.36,23.27,17,3,17,0.00
2013-3-22,30,27,25,8,7,6,42,41,41,23.27,23.27,0,0,0,0.00
2013-3-23,46,31,24,22,10,4,42,41,38,23.45,23.39,10,1,10,0.00
2013-3-24,58,36,15,31,13,-3,44,40,35,23.45,23.36,18,2,18,0.00
2013-3-25,66,40,18,36,16,0,43,39,33,23.48,23.42,12,2,12,0.00
2013-3-26,63,43,25,34,19,5,42,38,34,23.48,23.36,15,2,15,0.00
2013-3-27,66,43,24,36,19,4,42,38,33,23.48,23.39,13,2,17,0.00
2013-3-28,65,44,25,35,20,5,42,38,33,23.56,23.45,13,2,13,0.00
2013-3-29,70,48,29,39,23,8,41,37,32,23.59,23.54,10,2,10,0.00
2013-3-30,66,47,30,36,22,9,41,37,33,23.59,23.51,13,1,13,0.00
2013-3-31,73,48,28,41,23,7,42,37,32,23.54,23.45,13,2,13,0.35
2013-4-1,65,45,28,35,21,8,42,38,33,23.45,23.36,17,3,19,0.00
2013-4-2,63,43,23,34,19,4,42,38,34,23.45,23.36,15,3,18,0.00
2013-4-3,64,44,24,35,20,5,43,38,34,23.56,23.45,18,2,18,0.00
2013-4-4,72,48,24,41,23,4,42,37,32,23.59,23.51,10,1,10,0.00
2013-4-5,70,51,31,39,25,10,41,37,32,23.51,23.39,19,3,19,0.00
2013-4-6,72,51,32,40,25,11,41,37,32,23.48,23.39,15,2,15,0.00
2013-4-7,71,50,30,39,24,9,41,37,32,23.42,23.27,15,2,15,0.00
2013-4-8,49,40,33,24,17,12,41,39,37,23.27,22.89,23,4,25,0.04
2013-4-9,48,36,29,23,14,8,43,40,37,23.30,22.97,18,3,18,0.08
2013-4-10,53,40,27,27,17,6,42,39,36,23.45,23.30,22,4,22,0.00
2013-4-11,68,44,25,37,20,6,42,38,33,23.45,23.30,14,2,16,0.00
2013-4-12,67,46,24,37,21,4,42,38,33,23.39,23.33,11,1,12,0.00
2013-4-13,70,50,27,39,25,7,42,37,33,23.39,23.24,18,5,20,0.00
2013-4-14,69,53,39,38,27,16,39,36,33,23.27,23.18,17,5,17,0.00
2013-4-15,64,51,40,35,25,17,39,37,33,23.21,23.18,18,6,22,0.00
2013-4-16,59,46,31,31,22,10,41,38,35,23.21,23.15,24,6,24,0.00
2013-4-17,48,36,26,23,14,6,42,40,37,23.45,23.21,18,4,18,0.00
2013-4-18,51,33,15,25,11,-3,44,40,37,23.59,23.45,16,3,19,0.00
2013-4-19,60,31,14,32,10,-4,45,41,35,23.59,23.45,10,1,10,0.00
2013-4-20,69,47,25,38,22,6,42,37,33,23.51,23.42,17,3,17,0.00
2013-4-21,75,51,25,42,25,5,42,36,31,23.56,23.48,17,2,17,0.00
2013-4-22,75,54,29,42,27,8,41,36,31,23.51,23.36,17,4,20,0.00
2013-4-23,70,50,28,39,24,7,41,37,32,23.48,23.33,17,3,17,0.00
2013-4-24,72,48,22,41,23,3,43,37,32,23.48,23.42,18,2,18,0.00
2013-4-25,69,48,28,39,23,8,41,37,33,23.54,23.39,14,2,14,0.00
2013-4-26,70,49,28,39,24,8,41,37,32,23.62,23.54,13,2,13,0.00
2013-4-27,78,51,27,45,25,6,41,37,31,23.62,23.54,11,1,11,0.00
2013-4-28,81,53,27,46,26,7,41,36,30,23.56,23.45,10,1,10,0.00
2013-4-29,83,58,30,48,30,9,41,35,29,23.48,23.33,15,2,15,0.00
2013-4-30,80,60,38,46,32,15,39,34,30,23.39,23.33,22,4,22,0.00
2013-5-1,76,56,34,43,29,12,40,35,31,23.65,23.39,14,3,16,0.00
2013-5-2,61,47,35,33,22,14,40,38,34,23.74,23.65,22,6,22,0.00
2013-5-3,77,52,25,44,25,6,42,36,31,23.68,23.42,13,2,13,0.00
2013-5-4,75,53,27,42,26,6,41,36,31,23.45,23.33,18,2,18,0.00
2013-5-5,69,50,33,39,25,12,41,37,33,23.45,23.36,13,2,13,0.00
2013-5-6,62,48,35,33,23,14,41,37,34,23.45,23.39,14,2,14,0.04
2013-5-7,63,47,34,34,23,15,45,38,34,23.42,23.36,17,3,17,0.04
2013-5-8,62,45,29,33,22,12,52,41,34,23.48,23.42,10,2,11,0.00
2013-5-9,60,45,30,32,21,9,42,38,35,23.54,23.45,10,1,11,0.00
2013-5-10,69,49,28,38,24,9,44,38,33,23.65,23.51,11,2,13,0.04
2013-5-11,70,53,35,39,27,13,41,36,32,23.71,23.62,15,2,15,0.00
2013-5-12,76,56,32,43,28,12,41,36,31,23.71,23.62,13,2,15,0.00
2013-5-13,79,57,35,46,30,13,40,35,30,23.65,23.56,8,1,9,0.00
2013-5-14,79,56,37,46,29,15,40,35,30,23.59,23.51,17,2,18,0.00
2013-5-15,77,56,38,44,29,15,39,35,31,23.54,23.45,22,3,23,0.00
2013-5-16,76,58,33,44,30,12,41,35,31,23.51,23.42,15,2,19,0.00
2013-5-17,69,54,36,39,28,14,40,36,33,23.45,23.42,15,2,15,0.00
2013-5-18,71,54,35,40,28,13,40,36,32,23.48,23.42,15,2,15,0.00
2013-5-19,73,56,35,41,29,14,40,36,32,23.48,23.36,21,3,21,0.00
2013-5-20,69,53,33,38,27,12,41,36,33,23.51,23.45,17,2,17,0.00
2013-5-21,75,55,31,42,28,10,41,36,31,23.51,23.39,13,2,14,0.00
2013-5-22,75,57,34,42,30,12,40,35,31,23.42,23.33,15,3,15,0.00
2013-5-23,74,60,42,42,32,19,39,35,31,23.45,23.33,16,3,17,0.00
2013-5-24,74,56,35,42,29,13,40,35,31,23.51,23.45,18,2,18,0.00
2013-5-25,75,57,37,42,30,15,40,35,31,23.54,23.48,12,2,13,0.00
2013-5-26,73,56,35,41,29,13,40,36,32,23.54,23.48,12,3,13,0.00
2013-5-27,74,57,39,42,30,16,39,35,31,23.51,23.39,14,2,15,0.00
2013-5-28,71,55,35,40,28,13,40,36,32,23.39,23.24,15,2,15,0.00
2013-5-29,74,58,36,42,30,14,40,35,31,23.39,23.30,22,3,22,0.00
2013-5-30,78,60,38,45,32,15,39,35,31,23.48,23.36,14,2,14,0.00
2013-5-31,82,62,41,48,34,18,39,34,30,23.54,23.48,11,2,12,0.00
2013-6-1,82,65,49,47,35,24,37,34,30,23.56,23.51,15,3,15,0.00
2013-6-2,83,64,43,48,34,19,39,34,29,23.54,23.42,11,2,11,0.00
2013-6-3,82,63,42,47,34,19,39,34,30,23.54,23.45,14,2,14,0.00
2013-6-4,81,62,40,47,33,17,39,34,30,23.54,23.48,11,2,11,0.00
2013-6-5,82,63,40,48,34,18,39,34,30,23.54,23.48,9,1,11,0.00
2013-6-6,83,64,43,48,34,19,39,34,29,23.54,23.48,12,1,12,0.00
2013-6-7,86,66,42,50,36,18,39,33,29,23.54,23.45,11,2,11,0.00
2013-6-8,92,69,43,54,38,20,38,33,27,23.56,23.45,15,2,17,0.04
2013-6-9,91,69,47,54,38,22,37,32,28,23.59,23.54,13,1,13,0.00
2013-6-10,85,66,46,49,36,22,37,33,29,23.59,23.51,12,2,14,0.04
2013-6-11,86,65,41,50,36,18,39,33,29,23.62,23.51,20,2,20,0.00
2013-6-12,88,71,50,52,40,25,37,32,28,23.62,23.59,13,2,13,0.00
2013-6-13,85,66,47,49,36,22,37,33,29,23.59,23.54,12,2,13,0.00
2013-6-14,84,65,45,48,36,21,38,33,29,23.56,23.48,15,2,19,0.00
2013-6-15,80,64,45,46,34,21,38,34,30,23.59,23.51,15,2,15,0.00
2013-6-16,83,64,43,48,34,19,38,34,29,23.62,23.56,13,2,13,0.00
2013-6-17,83,63,41,48,34,18,39,34,29,23.59,23.54,10,2,13,0.00
2013-6-18,82,63,39,48,34,16,39,34,29,23.54,23.45,12,2,12,0.00
2013-6-19,81,64,44,47,35,20,38,34,30,23.45,23.39,12,3,12,0.00
2013-6-20,81,64,42,47,34,19,39,34,30,23.51,23.42,12,2,15,0.00
2013-6-21,81,65,45,46,35,21,38,34,30,23.54,23.48,13,2,13,0.00
2013-6-22,80,61,40,46,33,17,39,34,30,23.54,23.48,13,2,14,0.00
2013-6-23,79,62,40,46,33,17,39,34,30,23.51,23.42,11,2,17,0.00
2013-6-24,77,61,41,44,32,18,39,34,31,23.51,23.42,13,2,13,0.00
2013-6-25,83,65,46,48,35,22,38,33,29,23.62,23.51,11,2,11,0.00
2013-6-26,86,67,44,50,37,20,38,33,29,23.68,23.59,10,2,10,0.00
2013-6-27,94,71,48,55,40,23,37,32,27,23.71,23.65,10,1,10,0.00
2013-6-28,92,75,52,54,42,26,36,31,27,23.68,23.59,14,2,15,0.00
2013-6-29,91,75,57,54,42,30,35,31,27,23.65,23.56,15,2,15,0.00
2013-6-30,87,72,58,51,40,30,35,32,29,23.62,23.54,11,1,11,0.00
2013-7-1,91,75,58,53,42,31,35,31,28,23.65,23.56,11,2,11,0.00
2013-7-2,86,64,52,50,39,28,56,41,29,23.68,23.59,13,2,13,1.26
2013-7-3,77,63,51,51,40,31,62,44,31,23.59,23.51,11,1,11,0.04
2013-7-4,80,67,58,46,37,32,37,33,30,23.56,23.48,13,1,13,0.04
2013-7-5,80,68,56,46,38,32,42,34,30,23.56,23.51,10,1,10,0.00
2013-7-6,80,65,58,46,39,32,53,40,30,23.56,23.51,8,1,8,0.55
2013-7-7,80,66,50,46,40,33,57,40,30,23.59,23.51,13,0,13,0.00
2013-7-8,86,69,53,50,39,29,41,33,29,23.68,23.59,7,1,10,0.00
2013-7-9,87,71,54,51,40,28,36,32,29,23.71,23.62,9,1,9,0.00
2013-7-10,71,71,71,40,40,40,32,32,32,23.65,23.59,9,1,12,0.55
2013-7-11,71,64,0,40,36,0,32,29,32,23.62,23.56,15,1,15,0.00
2013-7-12,0,0,0,0,0,0,0,0,100,23.62,23.56,10,1,11,0.20
2013-7-13,79,36,0,46,20,0,35,16,31,23.65,23.59,11,1,11,0.00
2013-7-14,81,66,56,46,37,31,39,34,30,23.65,23.56,10,1,10,0.00
2013-7-15,79,66,57,46,37,31,39,34,30,23.62,23.51,11,1,11,0.00
2013-7-16,70,62,57,40,36,33,42,37,32,23.65,23.56,7,0,8,0.16
2013-7-17,71,62,51,40,36,31,47,38,32,23.68,23.62,6,0,6,0.16
2013-7-18,78,65,53,44,38,32,46,37,31,23.65,23.59,16,2,16,0.00
2013-7-19,81,66,56,46,38,30,46,36,30,23.62,23.54,12,1,13,0.31
2013-7-20,76,65,57,46,40,35,52,40,31,23.59,23.48,8,1,8,0.47
2013-7-21,74,64,58,46,39,32,53,40,31,23.62,23.48,11,1,11,0.20
2013-7-22,71,63,56,42,37,32,44,38,32,23.65,23.56,7,1,8,0.24
2013-7-23,74,63,56,42,37,32,47,38,31,23.62,23.56,9,1,9,0.00
2013-7-24,77,64,52,44,36,30,46,37,31,23.62,23.56,8,1,8,0.31
2013-7-25,74,62,58,49,42,33,57,48,32,23.68,23.59,8,0,8,1.02
2013-7-26,76,63,57,54,43,34,63,50,31,23.74,23.65,10,1,10,0.28
2013-7-27,74,62,56,51,41,33,62,47,31,23.71,23.56,13,1,13,0.20
2013-7-28,74,61,52,45,37,31,53,42,31,23.56,23.51,15,1,15,0.39
2013-7-29,77,64,52,47,39,29,61,42,31,23.71,23.56,10,1,10,0.04
2013-7-30,80,64,49,46,36,26,44,35,30,23.77,23.68,9,1,9,0.00
2013-7-31,83,66,52,48,37,28,41,35,29,23.74,23.65,8,1,8,0.08
2013-8-1,79,66,57,46,38,33,44,36,31,23.62,23.62,8,1,10,0.00
2013-8-2,81,65,54,47,37,31,44,35,30,23.65,23.59,10,1,11,0.00
2013-8-3,78,65,53,45,36,29,42,35,31,23.65,23.62,8,1,9,0.00
2013-8-4,76,65,56,43,36,31,40,35,31,23.68,23.62,10,1,10,0.00
2013-8-5,78,63,52,45,35,28,42,35,31,23.65,23.59,8,1,8,0.04
2013-8-6,63,60,57,34,33,30,38,36,34,23.65,23.56,8,1,8,0.00
2013-8-7,74,62,54,42,34,28,40,35,31,23.62,23.56,13,1,13,0.00
2013-8-8,77,62,46,44,34,23,41,35,31,23.59,23.54,9,1,9,0.00
2013-8-9,79,61,43,46,32,19,39,34,31,23.62,23.56,12,1,12,0.00
2013-8-10,78,62,45,45,33,21,38,34,31,23.65,23.59,11,1,11,0.00
2013-8-11,74,62,50,42,33,25,38,34,31,23.65,23.56,12,1,12,0.00
2013-8-12,81,64,49,46,36,26,43,35,30,23.65,23.56,8,1,8,0.04
2013-8-13,82,64,46,48,35,22,38,34,30,23.68,23.59,9,1,11,0.00
2013-8-14,83,66,47,48,36,22,38,33,29,23.65,23.59,12,1,12,0.00
2013-8-15,78,65,57,44,35,30,35,33,31,23.71,23.62,9,1,9,0.00
2013-8-16,82,66,53,47,36,27,37,33,30,23.68,23.65,9,0,9,0.00
2013-8-17,79,63,56,46,35,29,42,36,30,23.71,23.65,12,0,12,0.35
2013-8-18,79,63,53,46,36,31,46,37,30,23.68,23.62,8,0,8,0.00
2013-8-19,77,64,52,44,35,28,42,35,31,23.65,23.59,15,1,15,0.00
2013-8-20,84,66,48,49,37,24,40,34,29,23.62,23.56,11,2,11,0.00
2013-8-21,72,65,59,40,36,31,37,34,32,23.65,23.59,10,1,10,0.12
2013-8-22,77,66,55,44,36,29,38,33,31,23.65,23.56,8,0,8,0.00
2013-8-23,78,65,52,45,36,27,39,34,31,23.62,23.51,12,1,12,0.00
2013-8-24,69,60,54,39,33,28,37,35,33,23.62,23.54,6,0,6,0.08
2013-8-25,63,59,56,41,35,32,47,41,37,23.68,23.59,6,0,6,0.71
2013-8-26,67,60,57,50,40,35,57,47,35,23.68,23.59,9,1,9,0.67
2013-8-27,68,59,53,48,38,32,59,46,33,23.62,23.56,10,1,10,0.28
2013-8-28,75,62,48,45,36,30,55,39,31,23.65,23.56,8,1,10,0.00
2013-8-29,74,62,52,42,36,30,45,38,31,23.71,23.65,8,0,9,0.31
2013-8-30,73,63,55,49,39,35,57,43,32,23.71,23.62,8,1,10,0.08
2013-8-31,70,60,56,45,40,35,57,47,33,23.65,23.56,6,0,6,0.75
2013-9-1,75,62,51,55,40,32,64,47,31,23.62,23.56,9,1,9,0.00
2013-9-2,81,64,50,46,37,30,48,37,30,23.65,23.56,10,1,10,0.39
2013-9-3,83,66,51,48,37,28,44,35,29,23.65,23.59,10,1,10,0.00
2013-9-4,81,67,56,46,37,30,38,33,30,23.68,23.62,9,1,9,0.00
2013-9-5,84,65,52,48,36,28,40,34,29,23.68,23.62,9,0,9,0.39
2013-9-6,79,64,52,46,35,28,40,35,30,23.68,23.56,8,0,8,0.04
2013-9-7,78,62,54,45,36,30,45,37,31,23.62,23.56,9,1,9,0.24
2013-9-8,61,58,55,43,38,34,56,48,42,23.59,23.48,8,0,8,1.42
2013-9-9,58,56,50,45,42,38,63,61,56,23.51,23.39,6,0,6,0.98
2013-9-10,64,55,49,52,39,32,65,55,35,23.51,23.42,8,0,8,0.31
2013-9-11,65,56,48,44,36,27,61,47,34,23.56,23.48,9,1,10,0.43
2013-9-12,71,58,41,40,32,23,53,39,32,23.59,23.48,8,1,8,0.00
2013-9-13,73,58,45,42,32,24,46,37,31,23.54,23.42,10,1,10,0.00
2013-9-14,78,58,46,45,33,24,46,39,31,23.48,23.42,8,1,9,0.24
2013-9-15,71,58,45,40,33,26,54,40,32,23.56,23.48,10,1,10,0.00
2013-9-16,74,59,45,42,32,23,45,37,31,23.59,23.51,10,0,10,0.00
2013-9-17,80,62,47,46,34,25,44,36,30,23.56,23.42,10,1,11,0.00
2013-9-18,79,60,47,46,32,22,42,36,31,23.45,23.39,15,2,15,0.00
2013-9-19,81,58,41,47,31,18,40,35,30,23.51,23.45,10,1,10,0.00
2013-9-20,82,58,41,48,31,19,40,35,30,23.54,23.48,12,1,12,0.00
2013-9-21,54,47,43,28,23,20,40,38,36,23.54,23.36,0,0,0,0.00
2013-9-22,67,55,40,37,29,18,39,36,33,23.42,23.24,17,3,22,0.00
2013-9-23,75,52,32,42,26,12,41,37,31,23.56,23.39,7,1,7,0.00
2013-9-24,70,52,34,39,26,12,41,36,32,23.56,23.45,10,1,10,0.00
2013-9-25,67,55,41,37,28,18,39,36,33,23.45,23.27,17,3,20,0.00
2013-9-26,65,55,42,35,28,19,39,36,33,23.30,23.21,23,4,23,0.12
2013-9-27,61,46,32,33,22,12,41,38,34,23.54,23.30,10,2,10,0.00
2013-9-28,67,45,28,37,21,7,42,38,33,23.62,23.51,8,1,9,0.00
2013-9-29,78,51,30,45,25,9,41,37,31,23.65,23.56,11,1,11,0.00
2013-9-30,80,52,32,46,26,11,41,36,30,23.56,23.48,10,1,11,0.00
2013-10-1,80,52,32,46,26,11,41,36,30,23.54,23.48,12,1,12,0.00
2013-10-2,76,52,34,43,26,12,41,36,31,23.54,23.45,11,1,11,0.00
2013-10-3,73,53,37,41,27,15,40,36,32,23.45,23.30,15,3,15,0.00
2013-10-4,61,44,32,33,20,11,41,38,35,23.62,23.39,14,3,14,0.00
2013-10-5,54,44,33,28,20,12,41,38,36,23.68,23.59,13,4,13,0.00
2013-10-6,68,50,34,38,25,12,40,37,33,23.71,23.62,12,3,13,0.00
2013-10-7,77,50,28,44,24,8,41,37,31,23.65,23.51,10,1,10,0.00
2013-10-8,75,52,34,42,26,12,40,36,31,23.51,23.30,13,2,20,0.00
2013-10-9,67,52,37,37,26,15,40,36,33,23.33,23.21,15,3,15,0.00
2013-10-10,47,39,30,22,16,10,43,40,37,23.42,23.18,12,3,12,0.12
2013-10-11,61,42,24,33,18,6,44,39,34,23.48,23.39,8,1,8,0.00
2013-10-12,71,44,27,40,20,7,42,38,32,23.48,23.42,10,1,13,0.00
2013-10-13,68,46,29,38,21,9,42,38,33,23.45,23.36,16,2,16,0.00
2013-10-14,70,45,29,39,21,8,41,38,32,23.51,23.45,8,1,10,0.00
2013-10-15,68,43,24,38,19,4,42,38,33,23.48,23.36,12,1,12,0.00
2013-10-16,63,42,29,34,19,8,41,39,34,23.54,23.45,9,2,9,0.00
2013-10-17,73,42,21,42,19,2,43,38,32,23.51,23.42,13,1,13,0.00
2013-10-18,63,42,24,34,18,4,42,39,34,23.56,23.45,13,2,13,0.00
2013-10-19,71,43,21,39,19,2,43,38,32,23.56,23.48,8,1,9,0.00
2013-10-20,77,54,33,44,28,12,41,36,31,23.51,23.39,13,2,13,0.00
2013-10-21,68,43,26,37,19,6,42,38,33,23.56,23.45,11,1,11,0.00
2013-10-22,71,43,23,39,19,4,42,38,32,23.59,23.51,10,1,10,0.00
2013-10-23,74,45,25,41,21,5,42,38,31,23.54,23.45,9,1,9,0.00
2013-10-24,69,48,35,39,23,13,40,37,33,23.54,23.45,8,0,8,0.00
2013-10-25,71,44,28,40,20,7,41,38,32,23.59,23.51,9,1,9,0.00
2013-10-26,67,44,27,36,20,7,42,38,33,23.65,23.56,12,2,13,0.00
2013-10-27,76,49,28,44,23,7,42,37,31,23.56,23.24,12,1,12,0.00
2013-10-28,64,49,41,35,24,18,39,37,34,23.27,23.21,18,4,18,0.00
2013-10-29,46,40,32,22,17,11,41,39,38,23.30,23.24,19,4,19,0.00
2013-10-30,34,31,29,13,11,9,43,42,41,23.30,23.27,3,0,3,0.00
2013-10-31,54,36,26,28,14,6,42,40,36,23.48,23.45,6,0,8,0.08
2013-11-1,56,36,18,29,14,0,44,40,35,23.56,23.48,13,2,13,0.00
2013-11-2,65,40,21,35,17,2,43,39,33,23.56,23.36,10,1,10,0.00
2013-11-3,57,40,26,30,17,6,42,39,35,23.36,23.21,16,2,16,0.00
2013-11-4,55,38,21,29,15,2,43,40,36,23.27,23.18,12,2,13,0.00
2013-11-5,46,33,20,22,12,1,43,40,38,23.54,23.27,11,2,13,0.00
2013-11-6,49,30,13,24,9,-5,45,41,37,23.65,23.54,10,2,10,0.00
2013-11-7,57,36,20,30,14,1,43,40,35,23.65,23.51,11,1,11,0.00
2013-11-8,61,38,20,33,15,2,43,39,34,23.51,23.42,10,1,10,0.00
2013-11-9,76,41,22,43,18,3,43,39,31,23.54,23.48,9,1,10,0.00
2013-11-10,71,40,22,40,17,3,43,39,32,23.59,23.51,7,1,8,0.00
2013-11-11,67,40,22,36,17,3,43,39,33,23.62,23.54,11,2,13,0.00
2013-11-12,64,40,22,35,17,3,43,39,34,23.71,23.62,10,1,10,0.00
2013-11-13,69,43,26,38,19,6,42,38,33,23.65,23.45,10,1,10,0.00
2013-11-14,69,43,24,39,19,4,43,38,33,23.45,23.27,10,1,10,0.00
2013-11-15,58,41,30,30,18,9,43,39,35,23.27,23.06,13,2,14,0.04
2013-11-16,53,42,36,27,19,16,46,40,36,23.24,23.09,17,4,17,0.00
2013-11-17,62,41,26,33,18,6,42,39,34,23.48,23.24,9,2,10,0.00
2013-11-18,68,38,21,38,15,2,44,40,33,23.48,23.42,8,1,8,0.00
2013-11-19,65,40,25,36,17,5,43,39,33,23.42,23.27,11,1,11,0.00
2013-11-20,48,40,33,23,18,12,44,41,37,23.27,23.18,13,1,13,0.00
2013-11-21,45,40,35,25,20,16,47,44,41,23.30,23.27,6,1,6,0.35
2013-11-22,38,34,32,25,20,15,62,56,46,23.33,23.24,13,2,13,0.79
2013-11-23,35,33,32,24,22,21,64,64,62,23.36,23.30,13,1,13,0.63
2013-11-24,41,32,25,30,21,12,65,62,54,23.39,23.30,8,0,8,0.16
2013-11-25,44,30,18,20,11,2,58,46,38,23.51,23.36,15,2,15,0.24
2013-11-26,48,35,24,23,13,5,43,40,37,23.56,23.51,15,3,15,0.00
2013-11-27,47,32,24,22,12,5,50,43,37,23.54,23.36,10,2,10,0.00
2013-11-28,57,32,18,29,11,1,47,42,35,23.48,23.33,8,1,8,0.16
2013-11-29,54,32,19,28,11,1,46,42,36,23.54,23.45,8,1,8,0.00
2013-11-30,39,29,21,16,10,3,46,44,40,23.54,23.48,8,1,8,0.16
2013-12-1,41,30,23,18,11,5,51,45,39,23.59,23.51,8,1,8,0.00
2013-12-2,68,36,19,38,14,2,49,41,33,23.51,23.24,13,1,13,0.16
2013-12-3,58,38,25,31,15,5,43,40,35,23.24,22.97,17,3,17,0.16
2013-12-4,39,29,16,16,9,-2,44,41,39,23.15,22.92,20,2,20,0.00
2013-12-5,43,22,11,19,3,-6,45,43,39,23.21,23.09,12,2,13,0.16
2013-12-6,44,17,2,20,-1,-14,45,43,38,23.30,23.18,10,1,10,0.16
2013-12-7,28,19,6,8,1,-10,46,44,41,23.24,23.06,16,3,16,0.16
2013-12-8,31,25,18,10,6,0,46,43,41,23.24,23.09,15,4,17,0.00
2013-12-9,24,10,-6,4,-7,-22,45,44,42,23.54,23.24,16,3,17,0.00
2013-12-10,37,12,-8,15,-6,-24,45,43,39,23.54,23.42,8,1,8,0.16
2013-12-11,39,19,-4,16,0,-20,45,43,39,23.59,23.45,10,2,10,0.00
2013-12-12,43,24,8,19,5,-9,45,42,38,23.59,23.39,10,1,10,0.00
2013-12-13,54,28,13,28,8,-4,45,42,36,23.42,23.30,17,2,17,0.00
2013-12-14,42,27,12,19,7,-5,45,42,39,23.59,23.42,20,3,20,0.00
2013-12-15,53,36,20,27,14,1,43,40,36,23.62,23.56,14,3,14,0.00
2013-12-16,57,36,22,29,13,2,43,40,35,23.62,23.56,10,1,10,0.00
2013-12-17,57,32,16,30,11,-2,45,41,35,23.65,23.51,8,1,8,0.00
2013-12-18,57,36,22,30,14,3,43,40,35,23.51,23.18,7,0,7,0.00
2013-12-19,54,37,25,28,14,5,42,40,36,23.18,23.00,15,3,15,0.04
2013-12-20,43,31,19,19,11,1,46,43,38,23.06,23.00,8,0,8,0.00
2013-12-21,46,28,17,22,8,0,47,42,38,23.24,23.00,19,2,19,0.04
2013-12-22,49,26,9,24,6,-8,45,42,37,23.51,23.24,10,1,10,0.08
2013-12-23,45,29,14,20,8,-4,45,41,38,23.59,23.48,14,3,14,0.00
2013-12-24,52,30,12,26,9,-5,45,41,36,23.59,23.42,14,2,15,0.00
2013-12-25,41,32,22,18,10,3,43,41,39,23.56,23.51,17,5,18,0.00
2013-12-26,45,35,28,21,13,7,41,40,38,23.56,23.48,15,4,15,0.00
2013-12-27,46,35,21,22,13,2,43,40,37,23.54,23.45,13,3,13,0.00
2013-12-28,54,32,17,27,11,-1,44,41,36,23.45,23.24,12,1,12,0.00
2013-12-29,39,28,14,16,7,-4,44,41,39,23.45,23.24,20,3,21,0.00
2013-12-30,53,27,11,27,7,-6,45,42,36,23.54,23.51,10,1,10,0.00
2013-12-31,67,33,14,37,11,-4,45,40,33,23.51,23.39,10,1,10,0.00
2014-1-1,55,35,21,28,13,2,43,40,36,23.48,23.39,14,2,16,0.00
2014-1-2,57,33,16,30,11,-2,44,40,35,23.51,23.39,8,1,8,0.00